Regional Weather Roundup
Issued by NWS

Home | Current Version | Previous Version | Text Only | Print | Product List | Glossary On
Versions: 1 2 3 4 5 6 7 8 9 10 11 12 13 14 15 16 17 18 19 20 21 22 23 24 25 26 27
000
ASUS42 KKEY 281010
RWRKEY

FLORIDA REGIONAL WEATHER ROUNDUP FOR THE FLORIDA KEYS
NATIONAL WEATHER SERVICE KEY WEST FLORIDA
600 AM EDT THU JUL 28 2016

...SOUTH FLORIDA AND THE KEYS...

CITY           SKY/WX    TMP DP  RH WIND       PRES   REMARKS
FORT MYERS     CLEAR     77  75  93 CALM      30.04S
SW REGIONAL AP CLEAR     77  74  90 CALM      30.04S
NAPLES         CLEAR     77  75  93 NE6       30.03S
MIAMI          PTCLDY    81  74  79 E7        30.03F
WEST KENDALL   PTCLDY    79  74  84 E3        30.03S
HOMESTEAD      MOCLDY    82  75  79 SE5       30.03S
MARATHON       CLOUDY    81  73  76 NE10      30.02R
BOCA CHICA NAS MOCLDY    82  77  84 E6        30.02R HX  90
KEY WEST INTL  CLEAR     83  78  85 E5        30.01R HX  93

...INTERNATIONAL WEATHER...

CITY           SKY/WX    TMP DP  RH WIND       PRES   REMARKS
NASSAU BAHAMAS PTCLDY    82  75  78 CALM      30.04R
CANCUN MEXICO  PTCLDY    75  75 100 CALM      29.93F
COZUMEL MEXICO PTCLDY    73  73 100 CALM      29.94S

ADJACENT COASTAL WATERS...

STATION/POSITION TIME  SKY/WX   TEMP    WIND        PRES    WAVE
                                AIR SEA DIR/SP/G            HT/PER
                 (UTC)          (F)     (DEG/KT/KT) (MB)    (FT/S)
PULASKI SHOAL LI 1000            84     110/ 12/ 13 1016.2R
SAND KEY         0950            84     120/ 11/ 12 1016.6R
LONG KEY         0900            77 86  180/  6/  7 1017.3R
FOWEY ROCKS      1000            83 84   60/ 14/ 15 1017.6S

$$




USA.gov is the U.S. government's official web portal to all federal, state and local government web resources and services.